Find Starlink 33707

NORAD ID: 63401 Int'l Des: 2025-065 Owner: SPXS Country: US Constellation: starlink operational
LEOCIRCULAR

現在のビュー

3D地球を読み込み中...

About Starlink 33707

Starlink 33707 (NORAD 63401) is a starlink constellation satellite (v2 mini) launched Mar 31, 2025 by SPXS of US. It operates in LEO, CIRCULAR orbit with a mass of 575.00 kg.

Starlink 33707について

説明を読み込み中...

次回通過

Passes for default location (London). Set your location on the main map for personalized predictions.

高度履歴

Loading altitude history...

軌道要素

1 63401U 25065C 26167.96052499 .00014949 00000-0 55141-3 0 9994
2 63401 42.9966 266.3259 0003360 275.7546 84.2922 15.27590970 68021
Epoch: Jun 16, 2026 • Age: 32 hours

現在のステータス

高度 487.8 km
速度 7.62 km/s
衛星直下点 -24.00°S, 89.81°E
打ち上げ日 Mar 31, 2025
運用期間 1.2 years
タイプ internet

技術仕様

分類 Payload
質量 575.00 kg
乾燥質量 530.00 kg
総質量 575.00 kg
長さ 0.30 m
直径 4.10 m
スパン 29.00 m
形状 Box + pan
製造者 SPXS
バスタイプ Starlink V2MO
フェーズステータス In Orbit
所有者/国 SPXS/US

Most Searched